Regional Weather Roundup
Issued by NWS

Home | Current Version | Previous Version | Graphics & Text | Print | Product List | Glossary On
Versions: 1 2 3 4 5 6 7 8 9 10 11 12 13 14 15 16 17 18 19 20 21 22 23 24 25 26 27 28 29 30 31 32 33 34 35 36 37 38 39 40 41 42 43 44 45 46 47 48 49 50
000
ASUS43 KLMK 291202
RWRKY
KENTUCKY REGIONAL WEATHER ROUNDUP
NATIONAL WEATHER SERVICE LOUISVILLE KY
800 AM EDT WED JUL 29 2015

NOTE "FAIR" INDICATES FEW OR NO CLOUDS BELOW 12,000 FEET
WITH NO SIGNIFICANT WEATHER AND/OR OBSTRUCTIONS TO VISIBILITY.

KYZ001>023-026-027-061>063-070>075-291300-
WESTERN AND SOUTH CENTRAL KENTUCKY

CITY           SKY/WX    TMP DP  RH WIND       PRES   REMARKS
PADUCAH        MOSUNNY   75  72  90 CALM      30.00S
HENDERSON      MOSUNNY   73  72  94 SW3       29.98S
OWENSBORO      PTSUNNY  N/A N/A N/A S7        30.01R
HOPKINSVILLE   MOSUNNY   74  72  95 SE2       30.02R
BOWLING GREEN  MOSUNNY   75  72  90 CALM      30.03R
GLASGOW        NOT AVBL
$$

KYZ024-025-028>034-038-045-046-053-291300-
NORTH CENTRAL KENTUCKY

CITY           SKY/WX    TMP DP  RH WIND       PRES   REMARKS
LOUISVILLE/SDF PTSUNNY   77  73  87 SW7       29.99R FOG
LOUISVILLE/LOU MOSUNNY   78  73  84 SW5       30.00R
FORT KNOX      PTSUNNY   74  73  95 S2        30.00S
$$

KYZ035>037-039>044-047>052-055>060-089>105-291300-
NORTHEAST KENTUCKY

CITY           SKY/WX    TMP DP  RH WIND       PRES   REMARKS
LEXINGTON      SUNNY     72  72 100 SW3       30.02R FOG
COVINGTON      MOSUNNY   76  74  93 CALM      30.00R FOG
FRANKFORT      MOSUNNY   73  71  93 SW3       30.00S FOG
$$

KYZ054-064>069-076>088-106>120-291300-
SOUTHEAST KENTUCKY

CITY           SKY/WX    TMP DP  RH WIND       PRES   REMARKS
JACKSON        CLOUDY    72  70  93 CALM      30.05R FOG
LONDON         CLOUDY    73  69  87 SW3       30.05S FOG
SOMERSET       NOT AVBL
MIDDLESBORO    NOT AVBL
MONTICELLO     SUNNY     73  73 100 CALM      30.07S FOG
$$



USA.gov is the U.S. government's official web portal to all federal, state and local government web resources and services.